{"data":{"norad_id":53531,"epoch":"2026-09-20T14:05:52.185984Z","epoch_age_seconds":71460,"freshness":"FRESH","line1":"1 53531U 22101E   26263.58740956 -.00000145  00000+0  70926-5 0  9995","line2":"2 53531  53.1587 267.3929 0001365  79.1391 280.9765 15.31700505225745","mean_motion":15.31700505,"eccentricity":0.0001365,"inclination_deg":53.1587,"raan_deg":267.3929,"arg_perigee_deg":79.1391,"mean_anomaly_deg":280.9765,"bstar":7.0926e-6,"rev_number":22574,"period_min":94.013156965043,"perigee_km":469.80361834297,"apogee_km":471.6733613517,"semimajor_km":6848.8754898473,"source":"CELESTRAK","updated_at":"2026-09-21T09:00:32.898910Z"}}